Zurück zum Katalog

DMSP 5D-2 F11 DEB

AktivPO
NORAD 35534·DEBRIS·🇺🇸 United States

Gestartet Nov 28, 1991 von Vandenberg Space Force Base

Loading…

Nächste Überflüge (nächste 24 Stunden)

TLE

AktuellSource: Space-Track

Epoche: Sep 13, 2026, 12:55 UTC

1 35534U 91082CQ  26256.53845287  .00030267  00000-0  29669-2 0  9995
2 35534  98.8066   6.1454 0018687  79.4435 341.9925 14.92053201772939

Verfolge DMSP 5D-2 F11 DEB in Echtzeit mit AllMySat

Download on the App Store